DLH9HV EKCH-EDDF

Flight info

Callsign DLH9HV
Flight time N/A
Altitude 34000
Route NEXEN T503 GIMRU DCT MICOS DCT RIMET/N0409F310 T157 KOKEB/N0356F230 T157 KERAX KERAX5D
Aircraft A21N/M-SDE2E3FGIJ1LORWXYZ/HB1

Departure

Time 2026-04-26 17:14
Airport Copenhagen Kastrup Airport (EKCH)

Arrival

Time N/A
Airport Frankfurt Main Airport (EDDF)
Time Latitude Longitude Altitude Speed Heading
2026-04-26 16:32 55.62728 12.64281 22 ft 0 kts 303°
2026-04-26 16:58 55.62722 12.64296 45 ft 0 kts 295°
2026-04-26 16:58 55.62736 12.64371 26 ft 0 kts 206°
2026-04-26 16:59 55.62739 12.64374 22 ft 0 kts 206°
2026-04-26 17:05 55.62739 12.64373 22 ft 0 kts 206°
2026-04-26 17:05 55.62724 12.64360 22 ft 5 kts 206°
2026-04-26 17:06 55.62683 12.64326 24 ft 9 kts 201°
2026-04-26 17:06 55.62626 12.64283 24 ft 8 kts 211°
2026-04-26 17:06 55.62568 12.64219 22 ft 8 kts 213°
2026-04-26 17:06 55.62529 12.64204 25 ft 7 kts 157°
2026-04-26 17:07 55.62490 12.64283 22 ft 10 kts 122°
2026-04-26 17:07 55.62443 12.64396 22 ft 13 kts 128°
2026-04-26 17:07 55.62383 12.64536 22 ft 16 kts 121°
2026-04-26 17:07 55.62340 12.64659 24 ft 13 kts 122°
2026-04-26 17:08 55.62299 12.64770 22 ft 6 kts 127°
2026-04-26 17:08 55.62260 12.64802 22 ft 6 kts 185°
2026-04-26 17:08 55.62213 12.64779 22 ft 7 kts 212°
2026-04-26 17:08 55.62160 12.64718 23 ft 11 kts 213°
2026-04-26 17:09 55.62090 12.64638 22 ft 13 kts 213°
2026-04-26 17:09 55.62063 12.64607 24 ft 14 kts 213°
2026-04-26 17:09 55.61936 12.64499 22 ft 11 kts 181°
2026-04-26 17:09 55.61849 12.64523 24 ft 14 kts 169°
2026-04-26 17:10 55.61744 12.64559 22 ft 17 kts 169°
2026-04-26 17:10 55.61670 12.64557 22 ft 11 kts 203°
2026-04-26 17:10 55.61594 12.64475 24 ft 14 kts 213°
2026-04-26 17:10 55.61504 12.64371 22 ft 17 kts 213°
2026-04-26 17:11 55.61400 12.64251 22 ft 19 kts 213°
2026-04-26 17:11 55.61282 12.64115 22 ft 21 kts 213°
2026-04-26 17:11 55.61151 12.63964 22 ft 24 kts 213°
2026-04-26 17:11 55.61035 12.63830 22 ft 20 kts 213°
2026-04-26 17:12 55.60836 12.63602 22 ft 9 kts 212°
2026-04-26 17:12 55.60769 12.63621 22 ft 12 kts 139°
2026-04-26 17:13 55.60694 12.63774 23 ft 10 kts 130°
2026-04-26 17:13 55.60669 12.63837 26 ft 5 kts 96°
2026-04-26 17:13 55.60805 12.64068 27 ft 49 kts 40°
2026-04-26 17:14 55.61264 12.64780 24 ft 124 kts 40°
2026-04-26 17:14 55.62933 12.67458 976 ft 169 kts 38°
2026-04-26 17:14 55.63843 12.68874 1580 ft 182 kts 38°
2026-04-26 17:15 55.65954 12.72088 2691 ft 218 kts 37°
2026-04-26 17:15 55.67191 12.73926 3147 ft 244 kts 37°
2026-04-26 17:15 55.68533 12.75940 3790 ft 260 kts 38°
2026-04-26 17:16 55.69702 12.78438 4672 ft 271 kts 59°
2026-04-26 17:16 55.70197 12.81687 5581 ft 279 kts 87°
2026-04-26 17:16 55.69792 12.85059 6479 ft 285 kts 116°
2026-04-26 17:16 55.68550 12.87778 7293 ft 288 kts 144°